Weather History for Cottonwood Pass, CO

Change the Weather History Date:

Saturday, March 8, 2014

  Actual Average Record
Temperature  
Mean Temperature 30 °F -  
Max Temperature 37 °F - - ()
Min Temperature 23 °F - - ()
Degree Days  
Heating Degree Days 35    
Moisture  
Dew Point 16 °F    
Average Humidity 60    
Maximum Humidity 86    
Minimum Humidity 34    
Precipitation  
Precipitation 0.00 in - - ()
Sea Level Pressure  
Sea Level Pressure 30.28 in    
Wind  
Wind Speed 4 mph (SSE)    
Max Wind Speed 15 mph    
Max Gust Speed 22 mph    
Visibility 10 miles    
Events Snow    
T = Trace of Precipitation, MM = Missing Value Source: NWS Daily Summary

Daily Weather History Graph

Daily Weather History Graph

Search for Another Location

Airport:

Trip Planner

Search our weather history database for the weather conditions in past years. The results will help you decide how hot, cold, wet, or windy it might be!

Date:

Astronomy

Mar. 08, 2014 Rise Set
Actual Time 6:26 AM MST 6:05 PM MST
Civil Twilight 6:00 AM MST 6:31 PM MST
Nautical Twilight 5:29 AM MST 7:02 PM MST
Astronomical Twilight 4:58 AM MST 7:33 PM MST
Moon 11:14 AM MST (3/8) 1:01 AM MST (3/8)
Length of Visible Light 12h 31m
Length of Day
11h 38m
First Quarter, 52% of the Moon is Illuminated
Mar 8
First Quarter
Mar 16
Full
Mar 23
Last Quarter
Mar 30
New
Apr 7
First Quarter

Hourly Weather History & Observations

Time (MST) Temp. Windchill Dew Point Humidity Pressure Visibility Wind Dir Wind Speed Gust Speed Precip Events Conditions
12:15 AM 24.8 °F 17.9 °F 21.2 °F 86% 30.12 in 3.0 mi SE 5.8 mph - N/A Snow Light Snow
12:35 AM 24.8 °F 20.5 °F 21.2 °F 86% 30.12 in 3.0 mi SSE 3.5 mph - N/A Snow Light Snow
12:54 AM 24.8 °F 20.5 °F 21.2 °F 86% 30.12 in 5.0 mi SE 3.5 mph - N/A Snow Light Snow
1:15 AM 26.6 °F 22.6 °F 19.4 °F 74% 30.13 in 5.0 mi East 3.5 mph - N/A   Haze
1:35 AM 26.6 °F - 19.4 °F 74% 30.14 in 7.0 mi Calm Calm - N/A Snow Light Snow
1:54 AM 24.8 °F 19.1 °F 19.4 °F 80% 30.13 in 7.0 mi SE 4.6 mph - N/A Snow Light Snow
2:15 AM 24.8 °F 19.1 °F 19.4 °F 80% 30.14 in 10.0 mi SE 4.6 mph - N/A   Overcast
2:35 AM 26.6 °F 21.2 °F 19.4 °F 74% 30.14 in 10.0 mi SE 4.6 mph - N/A   Overcast
2:54 AM 26.6 °F - 19.4 °F 74% 30.15 in 10.0 mi Calm Calm - N/A   Overcast
3:15 AM 26.6 °F - 19.4 °F 74% 30.15 in 10.0 mi Calm Calm - N/A   Overcast
3:35 AM 26.6 °F 20.0 °F 19.4 °F 74% 30.16 in 10.0 mi ESE 5.8 mph - N/A   Overcast
3:55 AM 24.8 °F - 19.4 °F 80% 30.17 in 10.0 mi Calm Calm - N/A Snow Light Snow
4:15 AM 24.8 °F - 19.4 °F 80% 30.18 in 10.0 mi Calm Calm - N/A   Overcast
4:35 AM 24.8 °F - 19.4 °F 80% 30.19 in 10.0 mi Calm Calm - N/A   Overcast
4:55 AM 24.8 °F - 17.6 °F 74% 30.19 in 10.0 mi Calm Calm - N/A Snow Light Snow
5:15 AM 24.8 °F 17.9 °F 17.6 °F 74% 30.19 in 10.0 mi SE 5.8 mph - N/A   Overcast
5:35 AM 24.8 °F - 17.6 °F 74% 30.20 in 10.0 mi Calm Calm - N/A   Overcast
5:55 AM 24.8 °F 20.5 °F 15.8 °F 69% 30.21 in 10.0 mi SSE 3.5 mph - N/A   Overcast
6:15 AM 24.8 °F 20.5 °F 15.8 °F 69% 30.21 in 10.0 mi SSE 3.5 mph - N/A   Overcast
6:34 AM 24.8 °F - 14.0 °F 64% 30.21 in 10.0 mi Calm Calm - N/A Snow Light Snow
6:55 AM 24.8 °F - 14.0 °F 64% 30.23 in 10.0 mi Calm Calm - N/A   Overcast
7:15 AM 26.6 °F - 15.8 °F 64% 30.23 in 10.0 mi Calm Calm - N/A   Scattered Clouds
7:35 AM 23.0 °F - 17.6 °F 80% 30.24 in 10.0 mi Calm Calm - N/A   Scattered Clouds
7:55 AM 24.8 °F - 17.6 °F 74% 30.25 in 10.0 mi Calm Calm - N/A   Scattered Clouds
8:14 AM 24.8 °F 17.9 °F 19.4 °F 80% 30.26 in 10.0 mi ESE 5.8 mph - N/A   Scattered Clouds
8:35 AM 26.6 °F 20.0 °F 21.2 °F 80% 30.27 in 10.0 mi ESE 5.8 mph - N/A   Scattered Clouds
8:54 AM 28.4 °F 23.3 °F 23.0 °F 80% 30.28 in 10.0 mi SE 4.6 mph - N/A   Clear
9:15 AM 28.4 °F 23.3 °F 19.4 °F 69% 30.28 in 10.0 mi ESE 4.6 mph - N/A   Clear
9:35 AM 28.4 °F 23.3 °F 19.4 °F 69% 30.29 in 10.0 mi SE 4.6 mph - N/A   Mostly Cloudy
9:55 AM 30.2 °F 25.4 °F 15.8 °F 55% 30.29 in 10.0 mi SE 4.6 mph - N/A   Mostly Cloudy
10:15 AM 30.2 °F 24.3 °F 17.6 °F 60% 30.30 in 10.0 mi ESE 5.8 mph - N/A   Scattered Clouds
10:35 AM 30.2 °F - 14.0 °F 51% 30.30 in 10.0 mi Calm Calm - N/A   Mostly Cloudy
10:55 AM 30.2 °F - 17.6 °F 60% 30.31 in 10.0 mi Calm Calm - N/A   Scattered Clouds
11:14 AM 32.0 °F - 17.6 °F 55% 30.31 in 10.0 mi Calm Calm - N/A   Clear
11:35 AM 32.0 °F - 19.4 °F 60% 30.31 in 10.0 mi Calm Calm - N/A   Clear
11:55 AM 33.8 °F - 19.4 °F 56% 30.31 in 10.0 mi Calm Calm - N/A   Clear
12:15 PM 33.8 °F 29.6 °F 17.6 °F 52% 30.30 in 10.0 mi SE 4.6 mph - N/A   Clear
12:35 PM 33.8 °F 28.6 °F 17.6 °F 52% 30.29 in 10.0 mi ESE 5.8 mph - N/A   Clear
12:54 PM 33.8 °F 27.7 °F 19.4 °F 56% 30.29 in 10.0 mi SE 6.9 mph - N/A   Clear
1:15 PM 35.6 °F 31.7 °F 17.6 °F 48% 30.29 in 10.0 mi SE 4.6 mph - N/A   Clear
1:33 PM 35.6 °F 29.9 °F 19.4 °F 52% 30.29 in 10.0 mi ESE 6.9 mph - N/A   Clear
1:55 PM 35.6 °F 31.7 °F 17.6 °F 48% 30.29 in 10.0 mi South 4.6 mph - N/A   Clear
2:15 PM 35.6 °F 31.7 °F 17.6 °F 48% 30.29 in 10.0 mi ESE 4.6 mph - N/A   Clear
2:35 PM 37.4 °F 31.4 °F 21.2 °F 52% 30.29 in 10.0 mi ESE 8.1 mph - N/A   Clear
2:55 PM 37.4 °F 32.8 °F 19.4 °F 48% 30.30 in 10.0 mi SE 5.8 mph - N/A   Clear
3:15 PM 35.6 °F 30.7 °F 17.6 °F 48% 30.31 in 10.0 mi SE 5.8 mph - N/A   Clear
3:35 PM 35.6 °F - 14.0 °F 41% 30.31 in 10.0 mi Calm Calm - N/A   Clear
3:55 PM 37.4 °F 30.8 °F 19.4 °F 48% 30.29 in 10.0 mi SE 9.2 mph - N/A   Clear
4:15 PM 35.6 °F 29.2 °F 19.4 °F 52% 30.29 in 10.0 mi SE 8.1 mph - N/A   Clear
4:34 PM 33.8 °F 29.6 °F 19.4 °F 56% 30.30 in 10.0 mi South 4.6 mph - N/A   Clear
4:55 PM 33.8 °F - 17.6 °F 52% 30.31 in 10.0 mi Calm Calm - N/A   Clear
5:15 PM 33.8 °F - 17.6 °F 52% 30.33 in 10.0 mi Calm Calm - N/A   Clear
5:35 PM 32.0 °F - 14.0 °F 48% 30.33 in 10.0 mi Calm Calm - N/A   Clear
5:55 PM 32.0 °F - 17.6 °F 55% 30.33 in 10.0 mi Calm Calm - N/A   Clear
6:15 PM 32.0 °F 27.5 °F 12.2 °F 44% 30.33 in 10.0 mi North 4.6 mph - N/A   Clear
6:35 PM 32.0 °F 26.4 °F 12.2 °F 44% 30.35 in 10.0 mi NW 5.8 mph - N/A   Clear
6:55 PM 32.0 °F 24.8 °F 14.0 °F 48% 30.35 in 10.0 mi WNW 8.1 mph - N/A   Clear
7:15 PM 30.2 °F 21.9 °F 14.0 °F 51% 30.37 in 10.0 mi West 9.2 mph - N/A   Clear
7:35 PM 30.2 °F 21.9 °F 14.0 °F 51% 30.37 in 10.0 mi WNW 9.2 mph - N/A   Clear
7:55 PM 30.2 °F 20.2 °F 14.0 °F 51% 30.37 in 10.0 mi West 12.7 mph 17.3 mph N/A   Clear
8:15 PM 30.2 °F 21.9 °F 14.0 °F 51% 30.37 in 10.0 mi West 9.2 mph - N/A   Clear
8:35 PM 30.2 °F 20.2 °F 14.0 °F 51% 30.38 in 10.0 mi West 12.7 mph - N/A   Clear
8:55 PM 28.4 °F 18.5 °F 14.0 °F 55% 30.38 in 10.0 mi WNW 11.5 mph 17.3 mph N/A   Clear
9:14 PM 28.4 °F 19.1 °F 12.2 °F 51% 30.39 in 10.0 mi WNW 10.4 mph - N/A   Clear
9:35 PM 28.4 °F 17.0 °F 12.2 °F 51% 30.39 in 10.0 mi West 15.0 mph - N/A   Clear
9:55 PM 28.4 °F 17.0 °F 10.4 °F 47% 30.39 in 10.0 mi West 15.0 mph 20.7 mph N/A   Clear
10:15 PM 28.4 °F 18.5 °F 10.4 °F 47% 30.39 in 10.0 mi West 11.5 mph 17.3 mph N/A   Clear
10:35 PM 30.2 °F 19.8 °F 8.6 °F 40% 30.39 in 10.0 mi West 13.8 mph - N/A   Clear
10:55 PM 30.2 °F 20.8 °F 6.8 °F 37% 30.39 in 10.0 mi West 11.5 mph 20.7 mph N/A   Clear
11:15 PM 30.2 °F 21.9 °F 5.0 °F 34% 30.40 in 10.0 mi West 9.2 mph - N/A   Clear
11:35 PM 28.4 °F 17.5 °F 5.0 °F 37% 30.40 in 10.0 mi West 13.8 mph - N/A   Clear
11:55 PM 28.4 °F 17.0 °F 5.0 °F 37% 30.40 in 10.0 mi West 15.0 mph 21.9 mph N/A   Clear